EW8081 Weather Reports


Display with metric or nautical units.
time (UTC)temp
F
wind
direction
speed
MPH
gust
MPH
rain 1hr
in
rain 24hr
in
rain mn
in
humidity
%
barometer
mb
20260906234600 72 109 1.0 4.0 0.00 0.00 0.00 60 1020.9
20260906233059 70 126 1.0 6.0 0.00 0.00 0.00 62 1020.9
20260906231612 71 72 2.0 6.0 0.00 0.00 0.00 58 1021.3
20260906230055 70 72 0.0 3.0 0.00 0.00 0.00 63 1021.2
20260906224553 67 331 2.0 5.0 0.00 0.00 0.00 66 1021.4
20260906223046 64 301 2.0 7.0 0.00 0.00 0.00 72 1021.5
20260906221542 63 281 2.0 5.0 0.00 0.00 0.00 76 1021.5
20260906220041 61 284 0.0 6.0 0.00 0.00 0.00 79 1021.6
20260906214542 60 297 1.0 4.0 0.00 0.00 0.00 83 1021.4
20260906213031 58 284 1.0 4.0 0.00 0.00 0.00 85 1021.3
20260906211627 57 297 3.0 5.0 0.00 0.00 0.00 87 1021.1
20260906210025 56 292 2.0 4.0 0.00 0.00 0.00 88 1020.9
20260906204526 55 294 1.0 4.0 0.00 0.00 0.00 88 1020.6
20260906203026 54 292 1.0 4.0 0.00 0.00 0.00 88 1020.6
20260906201524 55 296 1.0 4.0 0.00 0.00 0.00 88 1020.4
20260906200023 55 297 1.0 3.0 0.00 0.00 0.00 87 1020.1
20260906194521 55 298 1.0 3.0 0.00 0.00 0.00 86 1020.1
20260906193019 56 295 1.0 4.0 0.00 0.00 0.00 86 1020.3
20260906191517 56 299 2.0 5.0 0.00 0.00 0.00 86 1020.4
20260906190015 56 323 2.0 7.0 0.00 0.00 0.00 86 1020.4
20260906184515 56 305 2.0 8.0 0.00 0.00 0.00 86 1020.5
20260906183024 56 290 3.0 6.0 0.00 0.00 0.00 86 1020.7
20260906181535 56 299 2.0 4.0 0.00 0.00 0.00 86 1020.7
20260906180011 56 302 2.0 8.0 0.00 0.00 0.00 86 1020.6
20260906174514 56 306 3.0 6.0 0.00 0.00 0.00 86 1020.5
20260906173009 56 301 3.0 8.0 0.00 0.00 0.00 86 1020.5
20260906171507 56 320 2.0 8.0 0.00 0.00 0.00 86 1020.5
20260906170017 56 295 2.0 5.0 0.00 0.00 0.00 86 1020.5
20260906164505 56 307 2.0 5.0 0.00 0.00 0.00 86 1020.4
20260906163004 57 292 2.0 5.0 0.00 0.00 0.00 86 1020.6
20260906161508 57 299 1.0 5.0 0.00 0.00 0.00 86 1020.6
20260906160002 57 293 1.0 5.0 0.00 0.00 0.00 86 1020.7
20260906154501 57 308 2.0 5.0 0.00 0.00 0.00 87 1020.7
20260906153102 57 316 3.0 5.0 0.00 0.00 0.00 88 1020.8
20260906151559 57 305 1.0 4.0 0.00 0.00 0.00 88 1021.0
20260906150058 56 304 1.0 3.0 0.00 0.00 0.00 88 1021.1
20260906144558 56 276 0.0 3.0 0.00 0.00 0.00 87 1021.1
20260906143055 57 257 0.0 2.0 0.00 0.00 0.00 87 1020.9
20260906141553 57 255 0.0 2.0 0.00 0.00 0.00 87 1020.9
20260906140101 58 245 0.0 3.0 0.00 0.00 0.00 86 1020.9
20260906134600 58 236 0.0 1.0 0.00 0.00 0.00 85 1020.8
20260906133049 59 233 0.0 1.0 0.00 0.00 0.00 85 1020.9
20260906131546 59 233 0.0 3.0 0.00 0.00 0.00 84 1020.9
20260906130057 60 218 0.0 5.0 0.00 0.00 0.00 84 1020.8
20260906124545 60 207 2.0 8.0 0.00 0.00 0.00 83 1020.9
20260906123045 60 222 2.0 9.0 0.00 0.00 0.00 83 1020.8
20260906121550 60 232 2.0 10.0 0.00 0.00 0.00 82 1020.8
20260906120043 60 224 2.0 9.0 0.00 0.00 0.00 81 1020.9
20260906114550 61 194 3.0 7.0 0.00 0.00 0.00 80 1020.9
20260906113048 61 203 2.0 10.0 0.00 0.00 0.00 80 1020.9
20260906111540 61 211 3.0 11.0 0.00 0.00 0.00 80 1020.8
20260906110040 62 173 3.0 10.0 0.00 0.00 0.00 79 1020.8
20260906104537 61 210 4.0 10.0 0.00 0.00 0.00 79 1020.6
20260906103036 61 195 4.0 9.0 0.00 0.00 0.00 78 1020.5
20260906101535 61 206 4.0 10.0 0.00 0.00 0.00 78 1020.3
20260906100033 61 229 1.0 11.0 0.00 0.00 0.00 77 1020.1
20260906094534 61 232 4.0 7.0 0.00 0.00 0.00 77 1019.9
20260906093032 62 205 3.0 9.0 0.00 0.00 0.00 77 1019.9
20260906091534 62 199 3.0 8.0 0.00 0.00 0.00 76 1019.8
20260906090028 62 231 4.0 9.0 0.00 0.00 0.00 75 1019.6
20260906084532 62 197 4.0 0.0 0.00 0.00 0.00 75 1019.4
20260906083025 63 208 3.0 10.0 0.00 0.00 0.00 74 1019.3
20260906081528 63 184 3.0 9.0 0.00 0.00 0.00 74 1018.9
20260906080020 63 174 4.0 10.0 0.00 0.00 0.00 73 1018.7
20260906074517 64 223 4.0 9.0 0.00 0.01 0.00 72 1018.5
20260906073018 64 176 3.0 9.0 0.00 0.01 0.00 71 1018.1
20260906071513 65 191 3.0 10.0 0.00 0.01 0.00 67 1017.8
20260906070010 67 234 3.0 11.0 0.00 0.02 0.00 62 1017.3
20260906064540 69 221 3.0 10.0 0.00 0.02 0.00 55 1017.3
20260906063039 72 168 4.0 10.0 0.00 0.02 0.00 52 1017.2
20260906061538 73 216 4.0 9.0 0.00 0.02 0.00 50 1017.1
20260906060051 73 207 5.0 9.0 0.00 0.02 0.00 51 1017.1
20260906054535 73 187 5.0 9.0 0.00 0.02 0.00 50 1016.7
20260906053037 73 167 4.0 9.0 0.00 0.02 0.00 50 1016.8
20260906051535 73 175 4.0 9.0 0.00 0.02 0.00 49 1016.4
20260906050031 72 176 4.0 9.0 0.00 0.02 0.00 49 1016.5
20260906044528 73 200 3.0 7.0 0.00 0.02 0.00 49 1016.2
20260906043028 73 206 4.0 11.0 0.00 0.02 0.00 49 1016.1
20260906041529 73 181 5.0 10.0 0.00 0.02 0.00 46 1016.1
20260906040033 74 205 4.0 11.0 0.00 0.02 0.00 45 1015.9
20260906034528 74 153 4.0 10.0 0.00 0.02 0.00 44 1015.8
20260906033021 76 185 7.0 12.0 0.00 0.02 0.00 42 1015.8
20260906031534 75 180 5.0 10.0 0.00 0.02 0.00 43 1015.4
20260906030020 74 212 4.0 11.0 0.00 0.02 0.00 43 1015.5
20260906024518 73 220 6.0 15.0 0.00 0.02 0.00 41 1015.6
20260906023018 72 180 4.0 13.0 0.00 0.02 0.00 43 1015.5
20260906021521 77 166 5.0 9.0 0.00 0.02 0.00 37 1015.4
20260906020016 77 237 3.0 11.0 0.00 0.02 0.00 35 1015.5
20260906014516 75 236 4.0 11.0 0.00 0.02 0.00 35 1015.4
20260906013010 75 237 3.0 12.0 0.00 0.02 0.00 35 1015.5
20260906011506 74 273 3.0 13.0 0.00 0.02 0.00 37 1015.6
20260906010003 73 349 6.0 14.0 0.00 0.02 0.00 37 1015.6
20260906004500 73 294 7.0 14.0 0.00 0.02 0.00 36 1015.4
20260906003059 72 317 10.0 20.0 0.00 0.02 0.00 37 1015.2
20260906001555 71 321 7.0 13.0 0.00 0.02 0.00 39 1015.2
20260906000100 70 320 6.0 16.0 0.00 0.02 0.00 40 1014.9